Welcome to our new website - Welkom op onze vernieuwde website - Bienvenue sur notre nouveau site web - Willkommen auf unserer neuen Website
Check our progress frequently. Prüfen Sie unsere Fortschritte regelmäßig. Consultez notre progression fréquemment. Komt u straks nog eens terug


Blik over 't Veldj richting Zuid-Westen Meer informatie Blik over 't Veldj richting Zuid-Westen


Onweer radar Meer informatie blitzortung!


Regen radar Meer informatie rain snow radar


Bezoek onze andere website:

Template documentation
and downloads

And another site


Select another period ( hide this area )

Eenheden Periode Custom range Directly to
Metrisch Engels Beide
Dagelijkse Wekelijkse Maandelijkse Jaarlijkse
use both date-selectors for a custom range
previous Dag
With this date

WeatherUnderground graphs for this period ( click here )


Dagelijkse Samenvatting Donderdag 25 april 2019
Tijd Temp. ( °C ) Dew pt. ( °C ) Wind ( km/h ) van Windvlaag ( km/h ) Luchtdruk ( hPa ) Humid.( % ) Rainrate ( cm )
Hoog18,8 9,6 33,8 OZO ( 343/1231 ) 45,1 1006,0 91 0,30
Gemiddeld12,5 7,8 6,5 OZO #53/189 13,0 1005,0 75 0,60
Laag8,4 6,9 -   0,0 1003,9 48 -
Dagelijkse Tabular details for Donderdag 25 april 2019
Tijd Temp. ( °C ) Dew pt. ( °C ) Wind ( km/h ) van Windvlaag ( km/h ) Luchtdruk ( hPa ) Humid.( % ) Rainrate ( cm )
00:04 10,6 8,7 4,7 ZZO 9,7 1004,3 88 -
00:09 10,6 8,7 6,4 ZO 14,5 1004,3 88 -
00:14 10,5 8,6 6,4 Oosten 11,3 1004,3 88 -
00:19 10,5 8,6 7,9 OZO 14,5 1004,3 88 -
00:24 10,5 8,6 4,7 Zuiden 16,1 1004,3 88 -
00:29 10,5 8,6 7,9 ZO 9,7 1004,3 88 -
00:34 10,4 8,5 6,4 ZO 9,7 1004,3 88 -
00:39 10,4 8,5 7,9 OZO 11,3 1004,6 88 -
00:45 10,3 8,4 6,4 ZO 11,3 1004,6 88 -
00:50 10,3 8,4 1,4 ZO 11,3 1004,6 88 -
00:55 10,3 8,4 17,7 OZO 17,7 1004,6 88 -
01:00 10,3 8,4 3,2 ZO 11,3 1004,6 88 -
01:05 10,3 8,4 4,7 ZO 16,1 1004,6 88 -
01:10 10,3 8,4 7,9 OZO 14,5 1004,6 88 -
01:15 10,3 8,4 3,2 Oosten 11,3 1004,6 88 -
01:20 10,3 8,4 6,4 ZZW 12,9 1004,6 88 -
01:25 10,3 8,4 4,7 ZO 11,3 1004,6 88 -
01:30 10,2 8,3 9,7 OZO 12,9 1004,6 88 -
01:35 10,2 8,3 4,7 ZZO 14,5 1004,6 88 -
01:40 10,1 8,2 3,2 OZO 8,0 1004,3 88 -
01:45 10,1 8,2 4,7 ONO 11,3 1004,3 88 -
01:50 10,0 8,1 6,4 OZO 9,7 1004,3 88 -
01:55 9,9 8,0 6,4 ZO 8,0 1004,3 88 -
02:00 9,9 8,0 4,7 OZO 9,7 1004,3 88 -
02:05 9,8 7,9 7,9 OZO 8,0 1004,3 88 -
02:10 9,8 7,9 1,4 OZO 11,3 1004,6 88 -
02:15 9,7 7,8   Kalm 3,2 1004,3 88 -
02:20 9,7 8,0 1,4 ZO 9,7 1004,3 89 -
02:25 9,7 8,0 6,4 ZO 9,7 1004,3 89 -
02:30 9,6 7,9 7,9 ZO 8,0 1004,3 89 -
02:35 9,6 7,9 1,4 ZO 8,0 1004,3 89 -
02:40 9,6 7,9 1,4 OZO 8,0 1004,3 89 -
02:45 9,5 7,8   Kalm 9,7 1003,9 89 -
02:50 9,5 7,8 3,2 OZO 6,4 1004,3 89 -
02:55 9,5 7,8 1,4 ZO 8,0 1004,3 89 -
03:00 9,4 7,7 4,7 ZO 9,7 1004,3 89 -
03:05 9,4 7,5 1,4 OZO 4,8 1004,3 88 -
03:10 9,4 7,7 4,7 ZO 4,8 1004,3 89 -
03:15 9,3 7,6 1,4 OZO 4,8 1004,6 89 -
03:20 9,3 7,6 1,4 ONO 4,8 1004,3 89 -
03:25 9,2 7,5   Kalm 3,2 1004,3 89 -
03:30 9,1 7,4   Kalm   1004,3 89 -
03:35 9,1 7,4   Kalm 4,8 1003,9 89 -
03:40 8,9 7,2   Kalm 4,8 1004,3 89 -
03:45 8,8 7,2   Kalm 1,6 1004,3 90 -
03:50 8,7 7,2 1,4 Oosten 4,8 1003,9 90 -
03:55 8,6 7,1 1,4 Oosten 4,8 1004,3 90 -
04:00 8,6 7,1   Kalm 4,8 1003,9 90 -
04:05 8,5 7,0   Kalm 1,6 1004,3 90 -
04:10 8,4 7,0 3,2 ZZO 8,0 1004,3 91 -
04:15 8,5 7,1 3,2 OZO 6,4 1004,6 91 -
04:20 8,6 7,2 6,4 Zuiden 14,5 1004,6 91 -
04:25 8,7 7,3 1,4 OZO 8,0 1004,6 91 -
04:30 8,7 7,2 3,2 OZO 6,4 1004,6 90 -
04:35 8,7 7,2 4,7 OZO 4,8 1004,6 90 -
04:40 8,7 7,2 6,4 OZO 9,7 1004,6 90 -
04:45 8,7 7,2 3,2 OZO 6,4 1004,6 90 -
04:50 8,7 7,2 1,4 OZO 1,6 1004,6 90 -
04:55 8,6 7,1   Kalm 3,2 1004,3 90 -
05:00 8,6 7,1 4,7 ONO 6,4 1003,9 90 -
05:05 8,6 7,1   Kalm 6,4 1004,3 90 -
05:10 8,5 7,0 6,4 ONO 11,3 1004,6 90 -
05:15 8,5 7,0 3,2 Oosten 9,7 1004,3 90 -
05:20 8,4 6,9 3,2 ONO 6,4 1004,3 90 -
05:25 8,4 6,9   Kalm 4,8 1004,3 90 -
05:30 8,4 6,9 1,4 ZO 3,2 1004,3 90 -
05:35 8,4 6,9 3,2 Oosten 11,3 1004,3 90 -
05:40 8,5 7,0 3,2 Oosten 4,8 1004,3 90 -
05:45 8,6 7,1 1,4 Oosten 6,4 1004,6 90 -
05:50 8,6 7,1 9,7 OZO 12,9 1004,3 90 -
05:55 8,7 7,0 4,7 ZO 9,7 1004,6 89 -
06:00 8,7 7,0 4,7 OZO 9,7 1004,6 89 -
06:05 8,7 7,0 4,7 OZO 9,7 1004,6 89 -
06:10 8,7 7,0 1,4 OZO 9,7 1004,6 89 -
06:15 8,7 7,0 4,7 Oosten 6,4 1004,6 89 -
06:20 8,7 7,0   Kalm 8,0 1004,6 89 -
06:25 8,7 7,0   Kalm 3,2 1004,6 89 -
06:30 8,6 6,9   Kalm 1,6 1004,6 89 -
06:35 8,6 6,9   Kalm 1,6 1004,6 89 -
06:40 8,7 7,0 6,4 OZO 6,4 1004,6 89 -
06:45 8,8 7,1   Kalm 3,2 1004,6 89 -
06:50 9,1 7,2 3,2 OZO 4,8 1004,6 88 -
06:55 9,3 7,2   Kalm 6,4 1004,6 87 -
07:00 9,6 7,4 1,4 ZO 9,7 1004,6 86 -
07:05 9,7 7,3 6,4 OZO 9,7 1004,3 85 -
07:10 9,7 7,1 3,2 OZO 9,7 1004,6 84 -
07:15 9,7 7,0 4,7 OZO 11,3 1004,3 83 -
07:20 9,8 7,1 4,7 Oosten 11,3 1004,3 83 -
07:25 9,8 7,1 4,7 OZO 8,0 1004,6 83 -
07:30 10,1 7,3 6,4 Oosten 9,7 1004,6 83 -
07:35 10,2 7,1   Kalm 8,0 1004,6 81 -
07:40 10,2 7,1 4,7 Oosten 11,3 1004,6 81 -
07:45 10,3 7,0   Kalm 6,4 1004,6 80 -
07:50 10,3 7,0 7,9 OZO 11,3 1004,6 80 -
07:55 10,5 7,2 4,7 OZO 9,7 1005,0 80 -
08:00 10,6 7,1 7,9 ZO 11,3 1005,0 79 -
08:05 10,7 7,0 3,2 OZO 11,3 1005,0 78 -
08:10 10,7 7,0 1,4 ZO 8,0 1005,3 78 -
08:15 10,7 7,0 7,9 OZO 11,3 1005,0 78 -
08:20 10,8 7,1 1,4 ZO 6,4 1005,0 78 -
08:25 11,2 7,5 1,4 ZZO 9,7 1005,0 78 -
08:30 11,4 7,3 13,0 ONO 14,5 1005,0 76 -
08:35 11,7 7,4 1,4 OZO 16,1 1005,3 75 -
08:40 11,8 7,5 14,3 Oosten 14,5 1005,3 75 -
08:45 12,2 7,7 4,7 ZZO 12,9 1005,6 74 -
08:50 12,3 7,6 9,7 ZO 17,7 1005,6 73 -
08:55 12,3 7,4 11,1 OZO 14,5 1005,6 72 -
09:00 12,3 7,4 13,0 OZO 17,7 1005,6 72 -
09:05 12,3 7,4 4,7 OZO 6,4 1005,6 72 -
09:10 12,4 7,7 3,2 OZO 4,8 1005,6 73 -
09:15 12,4 7,5   Kalm 6,4 1005,6 72 -
09:20 12,5 7,8   Kalm 4,8 1005,6 73 -
09:25 12,8 8,1 7,9 OZO 8,0 1005,6 73 -
09:30 13,1 8,0 4,7 OZO 11,3 1005,3 71 -
09:35 13,3 7,9 1,4 ZZO 6,4 1005,6 70 -
09:40 13,4 7,6 11,1 Oosten 16,1 1005,6 68 -
09:45 13,6 7,8 9,7 ZZO 9,7 1005,6 68 -
09:50 13,9 7,7 6,4 ZO 17,7 1005,6 66 -
09:55 14,2 7,5 11,1 ZO 19,3 1005,6 64 -
10:00 14,3 7,6 14,3 ZZW 14,5 1006,0 64 -
10:05 14,4 7,4 9,7 Zuiden 19,3 1006,0 63 -
10:10 14,4 7,4 6,4 ZZW 17,7 1006,0 63 -
10:15 14,4 7,4 13,0 ZO 16,1 1006,0 63 -
10:20 14,4 7,4 11,1 ZO 14,5 1005,6 63 -
10:25 14,4 7,4 9,7 ZO 14,5 1005,6 63 -
10:30 14,4 7,4 6,4 ZO 14,5 1006,0 63 -
10:35 14,4 7,4 4,7 ZZO 19,3 1005,6 63 -
10:40 14,4 7,7   Kalm 11,3 1005,6 64 -
10:45 14,4 7,9   Kalm 4,8 1005,6 65 -
10:50 14,4 7,9 6,4 OZO 8,0 1005,6 65 -
10:55 14,5 8,0 3,2 ZO 8,0 1005,6 65 -
11:00 14,6 8,1 6,4 ZZO 11,3 1006,0 65 -
11:05 14,5 8,2 3,2 ZO 11,3 1006,0 66 -
11:10 14,6 8,3 6,4 ZO 8,0 1006,0 66 -
11:15 14,8 8,3   Kalm 9,7 1005,6 65 -
11:20 14,9 8,4 1,4 ZO 12,9 1005,6 65 -
11:25 15,2 8,4 3,2 OZO 12,9 1006,0 64 -
11:30 15,6 8,8 1,4 OZO 8,0 1005,6 64 -
11:35 16,0 8,7 1,4 Oosten 16,1 1005,6 62 -
11:40 16,3 9,0 9,7 ZO 20,9 1005,6 62 -
11:45 16,6 9,3 4,7 ZO 8,0 1005,6 62 -
11:50 16,9 8,6 20,9 ZO 22,5 1005,6 58 -
11:55 17,0 8,4 14,3 ZO 25,7 1005,6 57 -
12:00 17,1 8,8 16,3 ZZO 19,3 1005,6 58 -
12:05 17,0 8,4 1,4 OZO 17,7 1005,6 57 -
12:10 16,9 8,3 3,2 OZO 22,5 1005,6 57 -
12:15 16,9 8,3 14,3 ZZO 27,4 1005,3 57 -
12:20 16,8 8,5 22,7 OZO 22,5 1005,6 58 -
12:25 16,8 8,5 13,0 ZO 17,7 1005,3 58 -
12:30 17,0 8,7 9,7 ZZW 19,3 1005,6 58 -
12:35 17,2 9,1 3,2 ONO 17,7 1005,6 59 -
12:40 17,4 9,1 17,7 Oosten 19,3 1005,6 58 -
12:45 17,6 9,2   Kalm 14,5 1005,6 58 -
12:50 17,7 9,1 13,0 ZO 22,5 1005,6 57 -
12:55 17,9 9,0 4,7 ZZO 25,7 1005,6 56 -
13:00 17,9 9,0 13,0 ZO 29,0 1005,6 56 -
13:05 17,8 8,9 7,9 ZZO 17,7 1005,6 56 -
13:10 17,8 8,9 11,1 Oosten 16,1 1005,6 56 -
13:15 17,9 9,3 13,0 OZO 20,9 1005,6 57 -
13:20 17,7 9,3 4,7 ZZO 12,9 1005,6 58 -
13:25 17,7 9,6 16,3 OZO 17,7 1005,6 59 -
13:30 17,4 9,3 1,4 Zuiden 9,7 1005,6 59 -
13:35 17,4 9,3 9,7 Oosten 11,3 1005,0 59 -
13:40 17,5 9,4 3,2 NO 11,3 1005,0 59 -
13:45 17,8 9,4 4,7 ZO 14,5 1004,6 58 -
13:50 18,2 9,5 7,9 NO 20,9 1005,0 57 -
13:55 18,6 9,6 4,7 ZO 14,5 1005,0 56 -
14:00 18,8 9,6 11,1 ZZO 16,1 1005,0 55 -
14:05 18,8 9,0 13,0 OZO 22,5 1005,0 53 -
14:10 18,7 8,4 13,0 ZO 35,4 1005,0 51 -
14:15 18,8 8,2 24,1 OZO 30,6 1005,3 50 -
14:20 18,8 8,2 17,7 ZZW 33,8 1005,3 50 -
14:25 18,6 7,4 30,6 ZZW 45,1 1005,3 48 -
14:30 18,3 7,4 33,8 ZZW 35,4 1005,6 49 0,30
14:35 18,2 7,9 14,3 ZZO 24,1 1005,3 51 0,30
14:41 18,2 7,9 13,0 ZZW 37,0 1005,6 51 0,30
14:46 18,1 7,5 14,3 OZO 32,2 1005,6 50 0,30
14:51 18,1 8,1 13,0 ZZW 19,3 1005,6 52 0,30
14:56 18,1 8,1 19,5 Zuiden 25,7 1005,6 52 0,30
15:01 18,1 7,2 16,3 ZZW 38,6 1005,6 49 0,30
15:06 18,1 7,2 14,3 ZZW 24,1 1005,6 49 0,30
15:11 18,2 7,3 13,0 ZZW 24,1 1005,6 49 0,30
15:16 18,3 7,4 9,7 ZZW 25,7 1005,6 49 0,30
15:21 18,4 7,2 17,7 Zuiden 25,7 1005,6 48 0,30
15:26 18,5 7,3 9,7 Zuiden 25,7 1005,6 48 0,30
15:31 18,4 7,2 17,7 ZZO 25,7 1005,6 48 -
15:36 18,4 7,5 6,4 ZW 20,9 1005,6 49 -
15:41 18,3 7,4 27,4 ZZW 27,4 1005,6 49 -
15:46 18,1 7,2 11,1 Zuiden 17,7 1005,6 49 -
Dagelijkse Samenvatting Donderdag 25 april 2019
Tijd Temp. ( °C ) Dew pt. ( °C ) Wind ( km/h ) van Windvlaag ( km/h ) Luchtdruk ( hPa ) Humid.( % ) Rainrate ( cm )
Hoog18,8 9,6 33,8 OZO ( 343/1231 ) 45,1 1006,0 91 0,30
Gemiddeld12,5 7,8 6,5 OZO #53/189 13,0 1005,0 75 0,60
Laag8,4 6,9 -   0,0 1003,9 48 -
Dagelijkse Tabular details for Donderdag 25 april 2019
Tijd Temp. ( °C ) Dew pt. ( °C ) Wind ( km/h ) van Windvlaag ( km/h ) Luchtdruk ( hPa ) Humid.( % ) Rainrate ( cm )
00:04 10,6 8,7 4,7 ZZO 9,7 1004,3 88 -
00:09 10,6 8,7 6,4 ZO 14,5 1004,3 88 -
00:14 10,5 8,6 6,4 Oosten 11,3 1004,3 88 -
00:19 10,5 8,6 7,9 OZO 14,5 1004,3 88 -
00:24 10,5 8,6 4,7 Zuiden 16,1 1004,3 88 -
00:29 10,5 8,6 7,9 ZO 9,7 1004,3 88 -
00:34 10,4 8,5 6,4 ZO 9,7 1004,3 88 -
00:39 10,4 8,5 7,9 OZO 11,3 1004,6 88 -
00:45 10,3 8,4 6,4 ZO 11,3 1004,6 88 -
00:50 10,3 8,4 1,4 ZO 11,3 1004,6 88 -
00:55 10,3 8,4 17,7 OZO 17,7 1004,6 88 -
01:00 10,3 8,4 3,2 ZO 11,3 1004,6 88 -
01:05 10,3 8,4 4,7 ZO 16,1 1004,6 88 -
01:10 10,3 8,4 7,9 OZO 14,5 1004,6 88 -
01:15 10,3 8,4 3,2 Oosten 11,3 1004,6 88 -
01:20 10,3 8,4 6,4 ZZW 12,9 1004,6 88 -
01:25 10,3 8,4 4,7 ZO 11,3 1004,6 88 -
01:30 10,2 8,3 9,7 OZO 12,9 1004,6 88 -
01:35 10,2 8,3 4,7 ZZO 14,5 1004,6 88 -
01:40 10,1 8,2 3,2 OZO 8,0 1004,3 88 -
01:45 10,1 8,2 4,7 ONO 11,3 1004,3 88 -
01:50 10,0 8,1 6,4 OZO 9,7 1004,3 88 -
01:55 9,9 8,0 6,4 ZO 8,0 1004,3 88 -
02:00 9,9 8,0 4,7 OZO 9,7 1004,3 88 -
02:05 9,8 7,9 7,9 OZO 8,0 1004,3 88 -
02:10 9,8 7,9 1,4 OZO 11,3 1004,6 88 -
02:15 9,7 7,8   Kalm 3,2 1004,3 88 -
02:20 9,7 8,0 1,4 ZO 9,7 1004,3 89 -
02:25 9,7 8,0 6,4 ZO 9,7 1004,3 89 -
02:30 9,6 7,9 7,9 ZO 8,0 1004,3 89 -
02:35 9,6 7,9 1,4 ZO 8,0 1004,3 89 -
02:40 9,6 7,9 1,4 OZO 8,0 1004,3 89 -
02:45 9,5 7,8   Kalm 9,7 1003,9 89 -
02:50 9,5 7,8 3,2 OZO 6,4 1004,3 89 -
02:55 9,5 7,8 1,4 ZO 8,0 1004,3 89 -
03:00 9,4 7,7 4,7 ZO 9,7 1004,3 89 -
03:05 9,4 7,5 1,4 OZO 4,8 1004,3 88 -
03:10 9,4 7,7 4,7 ZO 4,8 1004,3 89 -
03:15 9,3 7,6 1,4 OZO 4,8 1004,6 89 -
03:20 9,3 7,6 1,4 ONO 4,8 1004,3 89 -
03:25 9,2 7,5   Kalm 3,2 1004,3 89 -
03:30 9,1 7,4   Kalm   1004,3 89 -
03:35 9,1 7,4   Kalm 4,8 1003,9 89 -
03:40 8,9 7,2   Kalm 4,8 1004,3 89 -
03:45 8,8 7,2   Kalm 1,6 1004,3 90 -
03:50 8,7 7,2 1,4 Oosten 4,8 1003,9 90 -
03:55 8,6 7,1 1,4 Oosten 4,8 1004,3 90 -
04:00 8,6 7,1   Kalm 4,8 1003,9 90 -
04:05 8,5 7,0   Kalm 1,6 1004,3 90 -
04:10 8,4 7,0 3,2 ZZO 8,0 1004,3 91 -
04:15 8,5 7,1 3,2 OZO 6,4 1004,6 91 -
04:20 8,6 7,2 6,4 Zuiden 14,5 1004,6 91 -
04:25 8,7 7,3 1,4 OZO 8,0 1004,6 91 -
04:30 8,7 7,2 3,2 OZO 6,4 1004,6 90 -
04:35 8,7 7,2 4,7 OZO 4,8 1004,6 90 -
04:40 8,7 7,2 6,4 OZO 9,7 1004,6 90 -
04:45 8,7 7,2 3,2 OZO 6,4 1004,6 90 -
04:50 8,7 7,2 1,4 OZO 1,6 1004,6 90 -
04:55 8,6 7,1   Kalm 3,2 1004,3 90 -
05:00 8,6 7,1 4,7 ONO 6,4 1003,9 90 -
05:05 8,6 7,1   Kalm 6,4 1004,3 90 -
05:10 8,5 7,0 6,4 ONO 11,3 1004,6 90 -
05:15 8,5 7,0 3,2 Oosten 9,7 1004,3 90 -
05:20 8,4 6,9 3,2 ONO 6,4 1004,3 90 -
05:25 8,4 6,9   Kalm 4,8 1004,3 90 -
05:30 8,4 6,9 1,4 ZO 3,2 1004,3 90 -
05:35 8,4 6,9 3,2 Oosten 11,3 1004,3 90 -
05:40 8,5 7,0 3,2 Oosten 4,8 1004,3 90 -
05:45 8,6 7,1 1,4 Oosten 6,4 1004,6 90 -
05:50 8,6 7,1 9,7 OZO 12,9 1004,3 90 -
05:55 8,7 7,0 4,7 ZO 9,7 1004,6 89 -
06:00 8,7 7,0 4,7 OZO 9,7 1004,6 89 -
06:05 8,7 7,0 4,7 OZO 9,7 1004,6 89 -
06:10 8,7 7,0 1,4 OZO 9,7 1004,6 89 -
06:15 8,7 7,0 4,7 Oosten 6,4 1004,6 89 -
06:20 8,7 7,0   Kalm 8,0 1004,6 89 -
06:25 8,7 7,0   Kalm 3,2 1004,6 89 -
06:30 8,6 6,9   Kalm 1,6 1004,6 89 -
06:35 8,6 6,9   Kalm 1,6 1004,6 89 -
06:40 8,7 7,0 6,4 OZO 6,4 1004,6 89 -
06:45 8,8 7,1   Kalm 3,2 1004,6 89 -
06:50 9,1 7,2 3,2 OZO 4,8 1004,6 88 -
06:55 9,3 7,2   Kalm 6,4 1004,6 87 -
07:00 9,6 7,4 1,4 ZO 9,7 1004,6 86 -
07:05 9,7 7,3 6,4 OZO 9,7 1004,3 85 -
07:10 9,7 7,1 3,2 OZO 9,7 1004,6 84 -
07:15 9,7 7,0 4,7 OZO 11,3 1004,3 83 -
07:20 9,8 7,1 4,7 Oosten 11,3 1004,3 83 -
07:25 9,8 7,1 4,7 OZO 8,0 1004,6 83 -
07:30 10,1 7,3 6,4 Oosten 9,7 1004,6 83 -
07:35 10,2 7,1   Kalm 8,0 1004,6 81 -
07:40 10,2 7,1 4,7 Oosten 11,3 1004,6 81 -
07:45 10,3 7,0   Kalm 6,4 1004,6 80 -
07:50 10,3 7,0 7,9 OZO 11,3 1004,6 80 -
07:55 10,5 7,2 4,7 OZO 9,7 1005,0 80 -
08:00 10,6 7,1 7,9 ZO 11,3 1005,0 79 -
08:05 10,7 7,0 3,2 OZO 11,3 1005,0 78 -
08:10 10,7 7,0 1,4 ZO 8,0 1005,3 78 -
08:15 10,7 7,0 7,9 OZO 11,3 1005,0 78 -
08:20 10,8 7,1 1,4 ZO 6,4 1005,0 78 -
08:25 11,2 7,5 1,4 ZZO 9,7 1005,0 78 -
08:30 11,4 7,3 13,0 ONO 14,5 1005,0 76 -
08:35 11,7 7,4 1,4 OZO 16,1 1005,3 75 -
08:40 11,8 7,5 14,3 Oosten 14,5 1005,3 75 -
08:45 12,2 7,7 4,7 ZZO 12,9 1005,6 74 -
08:50 12,3 7,6 9,7 ZO 17,7 1005,6 73 -
08:55 12,3 7,4 11,1 OZO 14,5 1005,6 72 -
09:00 12,3 7,4 13,0 OZO 17,7 1005,6 72 -
09:05 12,3 7,4 4,7 OZO 6,4 1005,6 72 -
09:10 12,4 7,7 3,2 OZO 4,8 1005,6 73 -
09:15 12,4 7,5   Kalm 6,4 1005,6 72 -
09:20 12,5 7,8   Kalm 4,8 1005,6 73 -
09:25 12,8 8,1 7,9 OZO 8,0 1005,6 73 -
09:30 13,1 8,0 4,7 OZO 11,3 1005,3 71 -
09:35 13,3 7,9 1,4 ZZO 6,4 1005,6 70 -
09:40 13,4 7,6 11,1 Oosten 16,1 1005,6 68 -
09:45 13,6 7,8 9,7 ZZO 9,7 1005,6 68 -
09:50 13,9 7,7 6,4 ZO 17,7 1005,6 66 -
09:55 14,2 7,5 11,1 ZO 19,3 1005,6 64 -
10:00 14,3 7,6 14,3 ZZW 14,5 1006,0 64 -
10:05 14,4 7,4 9,7 Zuiden 19,3 1006,0 63 -
10:10 14,4 7,4 6,4 ZZW 17,7 1006,0 63 -
10:15 14,4 7,4 13,0 ZO 16,1 1006,0 63 -
10:20 14,4 7,4 11,1 ZO 14,5 1005,6 63 -
10:25 14,4 7,4 9,7 ZO 14,5 1005,6 63 -
10:30 14,4 7,4 6,4 ZO 14,5 1006,0 63 -
10:35 14,4 7,4 4,7 ZZO 19,3 1005,6 63 -
10:40 14,4 7,7   Kalm 11,3 1005,6 64 -
10:45 14,4 7,9   Kalm 4,8 1005,6 65 -
10:50 14,4 7,9 6,4 OZO 8,0 1005,6 65 -
10:55 14,5 8,0 3,2 ZO 8,0 1005,6 65 -
11:00 14,6 8,1 6,4 ZZO 11,3 1006,0 65 -
11:05 14,5 8,2 3,2 ZO 11,3 1006,0 66 -
11:10 14,6 8,3 6,4 ZO 8,0 1006,0 66 -
11:15 14,8 8,3   Kalm 9,7 1005,6 65 -
11:20 14,9 8,4 1,4 ZO 12,9 1005,6 65 -
11:25 15,2 8,4 3,2 OZO 12,9 1006,0 64 -
11:30 15,6 8,8 1,4 OZO 8,0 1005,6 64 -
11:35 16,0 8,7 1,4 Oosten 16,1 1005,6 62 -
11:40 16,3 9,0 9,7 ZO 20,9 1005,6 62 -
11:45 16,6 9,3 4,7 ZO 8,0 1005,6 62 -
11:50 16,9 8,6 20,9 ZO 22,5 1005,6 58 -
11:55 17,0 8,4 14,3 ZO 25,7 1005,6 57 -
12:00 17,1 8,8 16,3 ZZO 19,3 1005,6 58 -
12:05 17,0 8,4 1,4 OZO 17,7 1005,6 57 -
12:10 16,9 8,3 3,2 OZO 22,5 1005,6 57 -
12:15 16,9 8,3 14,3 ZZO 27,4 1005,3 57 -
12:20 16,8 8,5 22,7 OZO 22,5 1005,6 58 -
12:25 16,8 8,5 13,0 ZO 17,7 1005,3 58 -
12:30 17,0 8,7 9,7 ZZW 19,3 1005,6 58 -
12:35 17,2 9,1 3,2 ONO 17,7 1005,6 59 -
12:40 17,4 9,1 17,7 Oosten 19,3 1005,6 58 -
12:45 17,6 9,2   Kalm 14,5 1005,6 58 -
12:50 17,7 9,1 13,0 ZO 22,5 1005,6 57 -
12:55 17,9 9,0 4,7 ZZO 25,7 1005,6 56 -
13:00 17,9 9,0 13,0 ZO 29,0 1005,6 56 -
13:05 17,8 8,9 7,9 ZZO 17,7 1005,6 56 -
13:10 17,8 8,9 11,1 Oosten 16,1 1005,6 56 -
13:15 17,9 9,3 13,0 OZO 20,9 1005,6 57 -
13:20 17,7 9,3 4,7 ZZO 12,9 1005,6 58 -
13:25 17,7 9,6 16,3 OZO 17,7 1005,6 59 -
13:30 17,4 9,3 1,4 Zuiden 9,7 1005,6 59 -
13:35 17,4 9,3 9,7 Oosten 11,3 1005,0 59 -
13:40 17,5 9,4 3,2 NO 11,3 1005,0 59 -
13:45 17,8 9,4 4,7 ZO 14,5 1004,6 58 -
13:50 18,2 9,5 7,9 NO 20,9 1005,0 57 -
13:55 18,6 9,6 4,7 ZO 14,5 1005,0 56 -
14:00 18,8 9,6 11,1 ZZO 16,1 1005,0 55 -
14:05 18,8 9,0 13,0 OZO 22,5 1005,0 53 -
14:10 18,7 8,4 13,0 ZO 35,4 1005,0 51 -
14:15 18,8 8,2 24,1 OZO 30,6 1005,3 50 -
14:20 18,8 8,2 17,7 ZZW 33,8 1005,3 50 -
14:25 18,6 7,4 30,6 ZZW 45,1 1005,3 48 -
14:30 18,3 7,4 33,8 ZZW 35,4 1005,6 49 0,30
14:35 18,2 7,9 14,3 ZZO 24,1 1005,3 51 0,30
14:41 18,2 7,9 13,0 ZZW 37,0 1005,6 51 0,30
14:46 18,1 7,5 14,3 OZO 32,2 1005,6 50 0,30
14:51 18,1 8,1 13,0 ZZW 19,3 1005,6 52 0,30
14:56 18,1 8,1 19,5 Zuiden 25,7 1005,6 52 0,30
15:01 18,1 7,2 16,3 ZZW 38,6 1005,6 49 0,30
15:06 18,1 7,2 14,3 ZZW 24,1 1005,6 49 0,30
15:11 18,2 7,3 13,0 ZZW 24,1 1005,6 49 0,30
15:16 18,3 7,4 9,7 ZZW 25,7 1005,6 49 0,30
15:21 18,4 7,2 17,7 Zuiden 25,7 1005,6 48 0,30
15:26 18,5 7,3 9,7 Zuiden 25,7 1005,6 48 0,30
15:31 18,4 7,2 17,7 ZZO 25,7 1005,6 48 -
15:36 18,4 7,5 6,4 ZW 20,9 1005,6 49 -
15:41 18,3 7,4 27,4 ZZW 27,4 1005,6 49 -
15:46 18,1 7,2 11,1 Zuiden 17,7 1005,6 49 -

Download your copy of this data-set  here

Our weather-data as stored at Weather Underground. Script ontwikkeld door Jim McMurry. Aangepast voor de template door Leuven-Template.eu

U vindt ons ook hier:

UK Metoffice

Weather Underground

AWEKAS

Apparatuur in gebruik:

Weerstation
Davis Vantage Vue

Webleverancier
One.com

Davis Vantage Vue

One.com